FW1440 Anacortes WA US current weather conditions

sailwx.info

Wind from 193 at 0 knots gusting 2

Air temperature 3.9° C
Dewpoint 1.4° C

Last reported at 2020-Feb-19 02:53 UTC.
Time now 2020-Feb-19 03:44 UTC

Location: N 48°31' W 122°38'.
View on Google Maps.

See reports from other nearby stations

  
Tides and Currents Weather Stations Pressure Air Temp Water Temp Dewpoint Dewpoint Depression Visibility Wind Speed Wind Dir Waves Ship Positions
date/time (UTC)wind fromknots sea level pressurealtimeterstation pressurevisibilityair tempwater tempwave heightnotes
2020-Feb-19 02:53 193 0 gusting 2 3.9
2020-Feb-19 02:48 194 1 gusting 2 3.9
2020-Feb-19 02:43 189 0 gusting 2 3.9
2020-Feb-19 02:38 188 0 gusting 2 3.9
2020-Feb-19 02:33 188 0 gusting 2 3.9
2020-Feb-19 02:28 188 0 gusting 2 3.9
2020-Feb-19 02:23 200 0 gusting 1 3.9
2020-Feb-19 02:18 200 0 gusting 3 3.9
2020-Feb-19 02:13 200 0 gusting 3 4.4
2020-Feb-19 02:08 200 0 gusting 3 4.4
2020-Feb-19 02:03 184 0 gusting 2 4.4
2020-Feb-19 01:58 184 0 gusting 3 4.4
2020-Feb-19 01:53 254 0 gusting 3 4.4
2020-Feb-19 01:43 218 0 gusting 3 4.4
2020-Feb-19 01:38 180 1 gusting 4 5.0
2020-Feb-19 01:28 169 1 gusting 4 5.0
2020-Feb-19 01:23 159 1 gusting 4 5.0
2020-Feb-19 01:18 207 0 gusting 3 5.0
2020-Feb-19 01:13 199 0 gusting 2 5.6
2020-Feb-19 01:08 184 1 gusting 3 5.6
2020-Feb-19 01:03 176 1 gusting 3 5.6
2020-Feb-19 00:58 221 1 gusting 3 5.6
2020-Feb-19 00:53 205 1 gusting 5 6.1
2020-Feb-19 00:48 331 1 gusting 5 6.1
2020-Feb-19 00:43 078 0 gusting 3 6.1
2020-Feb-19 00:38 164 1 gusting 3 6.1
2020-Feb-19 00:33 263 1 gusting 3 6.7
2020-Feb-19 00:28 286 1 gusting 2 6.7
2020-Feb-19 00:23 259 1 gusting 5 6.7
2020-Feb-19 00:18 151 1 gusting 5 6.7
2020-Feb-19 00:13 134 1 gusting 3 6.7
2020-Feb-19 00:08 126 1 gusting 3 7.2
2020-Feb-19 00:03 322 1 gusting 3 7.2
2020-Feb-18 23:58 141 0 gusting 3 7.2
2020-Feb-18 23:53 134 0 gusting 3 7.2
2020-Feb-18 23:48 210 1 gusting 3 7.2
2020-Feb-18 23:43 323 1 gusting 6 7.2
2020-Feb-18 23:38 314 1 gusting 6 7.2
2020-Feb-18 23:33 319 1 gusting 4 7.2
2020-Feb-18 23:28 350 1 gusting 4 7.8
2020-Feb-18 23:23 302 1 gusting 5 7.8
2020-Feb-18 23:18 229 1 gusting 5 7.8
2020-Feb-18 23:13 315 0 gusting 2 8.3
2020-Feb-18 23:08 333 1 gusting 3 7.8
2020-Feb-18 23:03 333 1 gusting 3 7.8
2020-Feb-18 22:58 345 0 gusting 3 7.8
2020-Feb-18 22:53 340 0 gusting 2 7.8
2020-Feb-18 22:48 335 0 gusting 2 7.8
2020-Feb-18 22:43 335 0 gusting 2 7.8
2020-Feb-18 22:38 336 0 gusting 2 7.8
2020-Feb-18 22:33 336 0 gusting 3 8.3
2020-Feb-18 22:28 005 0 gusting 3 8.3
2020-Feb-18 22:23 341 1 gusting 3 8.3
2020-Feb-18 22:18 337 1 gusting 3 8.9
2020-Feb-18 22:08 342 1 gusting 4 9.4
2020-Feb-18 22:03 012 1 gusting 4 9.4
2020-Feb-18 21:58 323 1 gusting 6 9.4
2020-Feb-18 21:48 350 2 gusting 7 8.9
2020-Feb-18 21:43 343 2 gusting 7 8.9
2020-Feb-18 21:33 036 1 gusting 4 9.4
2020-Feb-18 21:28 310 1 gusting 2 9.4
2020-Feb-18 21:23 298 1 gusting 3 8.9
2020-Feb-18 21:18 300 1 gusting 3 8.3
2020-Feb-18 21:08 256 1 gusting 3 8.9
2020-Feb-18 20:58 340 0 gusting 4 8.9
2020-Feb-18 20:53 300 0 gusting 1 9.4
2020-Feb-18 20:48 300 0 gusting 2 8.9
2020-Feb-18 20:43 304 1 gusting 2 8.9
2020-Feb-18 20:38 315 1 gusting 3 8.3
2020-Feb-18 20:33 327 1 gusting 4 8.3
2020-Feb-18 20:23 330 1 gusting 3 8.3
2020-Feb-18 20:18 321 1 gusting 3 8.3
2020-Feb-18 20:13 058 2 gusting 4 7.8
2020-Feb-18 20:08 058 2 gusting 4 7.8
2020-Feb-18 20:03 055 1 gusting 4 7.2
2020-Feb-18 19:58 047 1 gusting 4 7.2
2020-Feb-18 19:53 044 1 gusting 3 7.2
2020-Feb-18 19:48 043 2 gusting 5 6.7
2020-Feb-18 19:43 059 1 gusting 5 6.7
2020-Feb-18 19:38 040 1 gusting 3 6.7
2020-Feb-18 19:33 024 1 gusting 3 6.7
2020-Feb-18 19:28 343 2 gusting 5 6.7
2020-Feb-18 19:23 046 2 gusting 5 5.6
2020-Feb-18 19:18 029 2 gusting 4 5.6
2020-Feb-18 19:13 050 2 gusting 5 5.6
2020-Feb-18 19:08 064 3 gusting 5 5.0
2020-Feb-18 19:03 047 2 gusting 6 5.6
2020-Feb-18 18:58 045 1 gusting 6 6.1
2020-Feb-18 18:53 041 1 gusting 3 6.1
2020-Feb-18 18:48 351 0 gusting 2 5.6
2020-Feb-18 18:43 027 0 gusting 2 5.0
2020-Feb-18 18:38 027 0 gusting 2 4.4
2020-Feb-18 18:33 027 0 gusting 2 3.9
2020-Feb-18 18:28 033 1 gusting 3 3.3
2020-Feb-18 18:23 034 1 gusting 3 2.8
2020-Feb-18 18:18 054 1 gusting 3 3.3
2020-Feb-18 18:13 072 1 gusting 3 2.8
2020-Feb-18 18:08 046 1 gusting 3 2.8
2020-Feb-18 18:03 049 1 gusting 3 2.8
2020-Feb-18 17:58 046 0 gusting 3 2.2
2020-Feb-18 17:53 065 0 gusting 2 1.7
2020-Feb-18 17:48 065 0 gusting 2 1.7
2020-Feb-18 17:43 065 1.1
2020-Feb-18 17:38 065 0 gusting 3 1.1
2020-Feb-18 17:33 065 0 gusting 3 1.1
2020-Feb-18 17:28 041 1.1
2020-Feb-18 17:23 041 0 gusting 2 1.1
2020-Feb-18 17:18 041 0 gusting 2 1.1
2020-Feb-18 17:13 103 0.6
2020-Feb-18 17:08 103 0.6
2020-Feb-18 17:03 103 0 gusting 1 0.6
2020-Feb-18 16:58 103 0 gusting 2 0.6
2020-Feb-18 16:53 103 0 gusting 2 0.6
2020-Feb-18 16:48 103 0 gusting 1 0.6
2020-Feb-18 16:43 103 -0.0
2020-Feb-18 16:38 103 -0.0
2020-Feb-18 16:33 103 -0.0
2020-Feb-18 16:28 103 -0.6
2020-Feb-18 16:23 103 -0.6
2020-Feb-18 16:18 103 -0.6
2020-Feb-18 16:08 103 -0.6
2020-Feb-18 16:03 103 0 gusting 1 -0.6
2020-Feb-18 15:58 103 0 gusting 1 -0.6
2020-Feb-18 15:53 103 -0.6
2020-Feb-18 15:48 103 -0.6
2020-Feb-18 15:43 103 -0.6
2020-Feb-18 15:38 103 -0.6
2020-Feb-18 15:33 103 -0.6
2020-Feb-18 15:28 103 -0.6
2020-Feb-18 15:23 103 -0.6
2020-Feb-18 15:18 103 -0.6
2020-Feb-18 15:13 103 -0.6
2020-Feb-18 15:08 103 -0.6
2020-Feb-18 15:03 103 -0.0
2020-Feb-18 14:58 073 -0.0
2020-Feb-18 14:53 073 -0.6
2020-Feb-18 14:48 073 -0.6
2020-Feb-18 14:43 073 -0.6
2020-Feb-18 14:38 073 -0.6
2020-Feb-18 14:33 069 0 gusting 2 -0.6
2020-Feb-18 14:28 069 -0.6
2020-Feb-18 14:23 069 -0.6
2020-Feb-18 14:18 069 0 gusting 1 -0.6
2020-Feb-18 14:13 069 -0.0
2020-Feb-18 14:08 069 -0.0
2020-Feb-18 14:03 069 -0.0
2020-Feb-18 13:58 069 -0.0
2020-Feb-18 13:53 069 -0.0
2020-Feb-18 13:48 069 -0.0
2020-Feb-18 13:43 069 -0.0
2020-Feb-18 13:38 069 -0.0
2020-Feb-18 13:33 069 -0.0
2020-Feb-18 13:28 069 -0.0
2020-Feb-18 13:22 069 -0.0
2020-Feb-18 13:17 069 -0.0
2020-Feb-18 13:12 069 -0.0
2020-Feb-18 13:07 069 -0.0
2020-Feb-18 13:02 069 -0.6
2020-Feb-18 12:57 069 -0.6
2020-Feb-18 12:52 069 -0.6
2020-Feb-18 12:47 069 -0.6
2020-Feb-18 12:42 069 -0.0
2020-Feb-18 12:37 069 -0.0
2020-Feb-18 12:32 069 -0.0
2020-Feb-18 12:27 068 -0.0
2020-Feb-18 12:22 068 -0.0
2020-Feb-18 12:17 068 0.6
2020-Feb-18 12:12 068 0.6
2020-Feb-18 12:07 068 0.6
2020-Feb-18 12:02 068 0.6
2020-Feb-18 11:57 068 0 gusting 1 0.6
2020-Feb-18 11:52 068 0.6
2020-Feb-18 11:47 068 0.6
2020-Feb-18 11:42 068 0.6
2020-Feb-18 11:37 068 0.6
2020-Feb-18 11:32 068 0.6
2020-Feb-18 11:27 068 0.6
2020-Feb-18 11:22 068 0.6
2020-Feb-18 11:17 068 1.1
2020-Feb-18 11:12 068 1.1
2020-Feb-18 11:07 068 0 gusting 1 1.1
2020-Feb-18 11:02 068 1.1
2020-Feb-18 10:57 068 1.1
2020-Feb-18 10:52 068 1.1
2020-Feb-18 10:47 068 1.7
2020-Feb-18 10:42 068 1.7
2020-Feb-18 10:37 068 1.7
2020-Feb-18 10:32 068 1.7
2020-Feb-18 10:27 068 1.7
2020-Feb-18 10:22 068 1.7
2020-Feb-18 10:17 068 1.7
2020-Feb-18 10:12 068 1.7
2020-Feb-18 10:07 068 1.1
2020-Feb-18 10:02 068 1.1
2020-Feb-18 09:57 068 1.1
2020-Feb-18 09:52 068 1.1
2020-Feb-18 09:47 068 1.1
2020-Feb-18 09:42 068 1.1
2020-Feb-18 09:37 068 1.1
2020-Feb-18 09:32 068 1.1
2020-Feb-18 09:27 068 1.1
2020-Feb-18 09:22 068 1.1
2020-Feb-18 09:17 068 1.1
2020-Feb-18 09:12 068 1.1
2020-Feb-18 09:07 068 1.1
2020-Feb-18 09:02 068 1.1
2020-Feb-18 08:57 068 1.1
2020-Feb-18 08:52 068 1.1
2020-Feb-18 08:47 068 1.1
2020-Feb-18 08:42 068 1.1
2020-Feb-18 08:37 068 1.1
2020-Feb-18 08:32 068 1.7
2020-Feb-18 08:27 068 1.7
2020-Feb-18 08:22 068 1.7
2020-Feb-18 08:17 068 1.7
2020-Feb-18 08:12 068 0 gusting 1 1.7
2020-Feb-18 08:07 068 1.7
2020-Feb-18 08:02 068 1.7
2020-Feb-18 07:57 068 1.7
2020-Feb-18 07:52 068 1.7
2020-Feb-18 07:47 068 0 gusting 1 1.7
2020-Feb-18 07:42 068 0 gusting 0 2.2
2020-Feb-18 07:37 068 0 gusting 0 2.2
2020-Feb-18 07:32 068 2.2
2020-Feb-18 07:27 068 2.2
2020-Feb-18 07:22 068 2.2
2020-Feb-18 07:17 068 0 gusting 0 2.2
2020-Feb-18 07:12 068 0 gusting 0 1.7
2020-Feb-18 07:07 068 0 gusting 1 1.7
2020-Feb-18 07:02 068 0 gusting 1 1.7
2020-Feb-18 06:57 068 1.7
2020-Feb-18 06:52 068 2.2
2020-Feb-18 06:47 068 2.2
2020-Feb-18 06:42 068 0 gusting 1 2.2
2020-Feb-18 06:37 068 2.2
2020-Feb-18 06:32 068 2.2
2020-Feb-18 06:27 068 0 gusting 0 2.2
2020-Feb-18 06:22 068 0 gusting 0 2.2
2020-Feb-18 06:17 068 0 gusting 1 2.2
2020-Feb-18 06:12 068 0 gusting 1 2.2
2020-Feb-18 06:07 068 0 gusting 1 2.2
2020-Feb-18 06:02 068 0 gusting 1 2.2
2020-Feb-18 05:57 068 2.2
2020-Feb-18 05:52 068 0 gusting 1 2.2
2020-Feb-18 05:47 068 0 gusting 1 2.2
2020-Feb-18 05:42 068 0 gusting 1 2.2
2020-Feb-18 05:37 068 2.2
2020-Feb-18 05:32 068 2.2
2020-Feb-18 05:27 068 2.2
2020-Feb-18 05:22 068 2.2
2020-Feb-18 05:17 068 0 gusting 1 2.2
2020-Feb-18 05:12 068 2.8
2020-Feb-18 05:07 068 2.8
2020-Feb-18 05:02 068 2.8
2020-Feb-18 04:57 068 0 gusting 0 2.8
2020-Feb-18 04:52 068 0 gusting 1 2.8
2020-Feb-18 04:47 068 2.8
2020-Feb-18 04:42 068 2.8
2020-Feb-18 04:37 068 2.8
2020-Feb-18 04:32 068 2.8
2020-Feb-18 04:27 068 2.8
2020-Feb-18 04:22 068 2.8
2020-Feb-18 04:17 068 0 gusting 0 2.8
2020-Feb-18 04:12 068 2.8
2020-Feb-18 04:07 068 2.8
2020-Feb-18 04:02 068 2.8
2020-Feb-18 03:57 068 3.3
2020-Feb-18 03:52 068 0 gusting 1 3.3
2020-Feb-18 03:47 068 0 gusting 1 3.3
2020-Feb-18 03:42 068 0 gusting 1 3.3
2020-Feb-18 03:37 068 0 gusting 1 3.3
2020-Feb-18 03:32 068 0 gusting 1 3.3
2020-Feb-18 03:27 068 0 gusting 1 3.3
2020-Feb-18 03:22 068 3.3
2020-Feb-18 03:17 068 3.3
2020-Feb-18 03:12 068 3.9
2020-Feb-18 03:07 068 3.9
2020-Feb-18 03:02 068 3.9
2020-Feb-18 02:57 068 3.9
2020-Feb-18 02:52 068 3.9
2020-Feb-18 02:47 068 3.9
2020-Feb-18 02:42 068 3.9
2020-Feb-18 02:37 068 0 gusting 1 3.9
2020-Feb-18 02:32 068 0 gusting 1 4.4
2020-Feb-18 02:27 068 0 gusting 1 4.4
2020-Feb-18 02:22 068 0 gusting 0 4.4
2020-Feb-18 02:17 068 0 gusting 0 4.4
2020-Feb-18 02:12 068 4.4
2020-Feb-18 02:07 068 5.0
2020-Feb-18 02:02 068 5.0
2020-Feb-18 01:57 068 5.0
2020-Feb-18 01:52 068 5.6
2020-Feb-18 01:47 068 5.6
2020-Feb-18 01:42 068 5.6
2020-Feb-18 01:37 068 5.6
2020-Feb-18 01:32 068 0 gusting 1 5.6
2020-Feb-18 01:27 068 0 gusting 1 5.6
2020-Feb-18 01:22 068 0 gusting 2 6.1
2020-Feb-18 01:17 068 0 gusting 2 6.1
2020-Feb-18 01:12 067 0 gusting 2 6.1
2020-Feb-18 01:07 066 0 gusting 1 6.7
2020-Feb-18 01:02 066 0 gusting 2 6.7
2020-Feb-18 00:57 065 0 gusting 2 6.7
2020-Feb-18 00:52 067 0 gusting 1 6.7
2020-Feb-18 00:47 066 0 gusting 2 7.2
2020-Feb-18 00:42 066 0 gusting 2 7.2
2020-Feb-18 00:37 066 0 gusting 2 7.2
2020-Feb-18 00:32 034 1 gusting 3 7.2
2020-Feb-18 00:27 023 1 gusting 3 7.2
2020-Feb-18 00:22 059 1 gusting 3 7.8
2020-Feb-18 00:17 355 0 gusting 2 7.8
2020-Feb-18 00:12 355 0 gusting 2 7.8
2020-Feb-18 00:07 355 0 gusting 2 7.8
2020-Feb-18 00:02 076 0 gusting 2 7.2
2020-Feb-17 23:57 030 1 gusting 2 7.8
2020-Feb-17 23:52 038 1 gusting 2 7.8
2020-Feb-17 23:47 039 1 gusting 3 7.8
2020-Feb-17 23:42 013 1 gusting 3 7.8
2020-Feb-17 23:37 046 1 gusting 3 7.8
2020-Feb-17 23:32 044 0 gusting 3 7.8
2020-Feb-17 23:27 057 1 gusting 3 7.8
2020-Feb-17 23:22 090 0 gusting 3 7.8
2020-Feb-17 23:17 028 0 gusting 2 7.8
2020-Feb-17 23:12 078 1 gusting 4 7.2
2020-Feb-17 23:07 046 2 gusting 5 7.2
2020-Feb-17 23:02 062 2 gusting 5 7.2
2020-Feb-17 22:57 071 2 gusting 5 7.8
2020-Feb-17 22:52 032 2 gusting 5 7.8
2020-Feb-17 22:47 087 2 gusting 5 7.8
2020-Feb-17 22:42 036 2 gusting 5 7.8
2020-Feb-17 22:37 7.8
2020-Feb-17 22:32 049 2 gusting 6 8.3
2020-Feb-17 22:27 021 2 gusting 4 8.3
2020-Feb-17 22:22 010 1 gusting 4 8.3
2020-Feb-17 22:17 034 1 gusting 3 8.3
2020-Feb-17 22:12 081 1 gusting 3 7.8
2020-Feb-17 22:07 074 1 gusting 4 7.8
2020-Feb-17 22:02 084 2 gusting 6 7.8
2020-Feb-17 21:57 028 1 gusting 6 7.8
2020-Feb-17 21:52 100 1 gusting 3 7.8
2020-Feb-17 21:47 076 1 gusting 4 8.3
2020-Feb-17 21:42 042 1 gusting 4 8.3
2020-Feb-17 21:37 028 1 gusting 4 8.3
2020-Feb-17 21:32 005 1 gusting 4 8.9
2020-Feb-17 21:27 071 2 gusting 4 8.9
2020-Feb-17 21:22 031 2 gusting 4 8.9
2020-Feb-17 21:17 053 1 gusting 3 8.9
2020-Feb-17 21:12 310 1 gusting 2 8.9
2020-Feb-17 21:07 302 1 gusting 2 8.9
2020-Feb-17 21:02 302 0 gusting 2 8.9
2020-Feb-17 20:57 300 0 gusting 2 8.3
2020-Feb-17 20:52 299 1 gusting 2 8.3
2020-Feb-17 20:47 299 0 gusting 3 8.3
2020-Feb-17 20:42 299 0 gusting 3 8.3
2020-Feb-17 20:37 288 8.3
2020-Feb-17 20:32 288 0 gusting 2 8.3
2020-Feb-17 20:27 288 0 gusting 2 8.3
2020-Feb-17 20:22 288 0 gusting 3 7.8
2020-Feb-17 20:17 270 1 gusting 3 7.8
2020-Feb-17 20:12 266 1 gusting 3 7.8
2020-Feb-17 20:06 266 1 gusting 3 7.8
2020-Feb-17 20:01 271 1 gusting 2 7.8
2020-Feb-17 19:56 238 1 gusting 4 7.8
2020-Feb-17 19:51 263 1 gusting 4 7.8
2020-Feb-17 19:46 304 0 gusting 4 7.8
2020-Feb-17 19:41 299 0 gusting 3 7.8
2020-Feb-17 19:36 311 0 gusting 3 7.8
2020-Feb-17 19:31 313 1 gusting 3 7.8
2020-Feb-17 19:26 293 1 gusting 3 7.2
2020-Feb-17 19:21 263 1 gusting 6 7.2
2020-Feb-17 19:16 265 2 gusting 6 7.2
2020-Feb-17 19:11 270 2 gusting 6 6.7
2020-Feb-17 19:06 246 1 gusting 6 6.7
2020-Feb-17 19:01 235 1 gusting 5 6.7
2020-Feb-17 18:56 260 1 gusting 5 6.7
2020-Feb-17 18:51 293 1 gusting 5 6.7
2020-Feb-17 18:46 263 1 gusting 3 6.7
2020-Feb-17 18:41 266 1 gusting 5 6.7
2020-Feb-17 18:36 266 1 gusting 5 6.7
2020-Feb-17 18:31 268 1 gusting 5 6.7
2020-Feb-17 18:26 269 1 gusting 3 6.1
2020-Feb-17 18:21 227 1 gusting 3 6.1
2020-Feb-17 18:16 261 1 gusting 5 6.1
2020-Feb-17 18:11 281 1 gusting 5 6.1
2020-Feb-17 18:06 260 1 gusting 5 6.1
2020-Feb-17 18:01 229 1 gusting 5 6.1
2020-Feb-17 17:56 304 1 gusting 6 6.1
2020-Feb-17 17:51 263 1 gusting 6 6.1
2020-Feb-17 17:46 307 1 gusting 4 5.6
2020-Feb-17 17:41 274 1 gusting 4 5.6
2020-Feb-17 17:36 276 1 gusting 3 5.6
2020-Feb-17 17:31 254 0 gusting 2 5.6
2020-Feb-17 17:26 275 0 gusting 1 5.6
2020-Feb-17 17:21 275 0 gusting 3 5.0
2020-Feb-17 17:16 275 1 gusting 3 5.0
2020-Feb-17 17:11 224 0 gusting 2 5.0
2020-Feb-17 17:06 252 0 gusting 2 5.0
2020-Feb-17 17:01 252 0 gusting 3 4.4
2020-Feb-17 16:56 252 1 gusting 3 4.4
2020-Feb-17 16:51 213 1 gusting 3 4.4
2020-Feb-17 16:46 230 1 gusting 3 4.4
2020-Feb-17 16:41 270 1 gusting 2 3.9
2020-Feb-17 16:36 270 1 gusting 3 3.9
2020-Feb-17 16:32 238 1 gusting 3 3.3
2020-Feb-17 16:26 244 1 gusting 2 3.3
2020-Feb-17 16:21 243 0 gusting 2 3.3
2020-Feb-17 16:15 234 0 gusting 2 3.3
2020-Feb-17 16:01 234 0 gusting 2 2.8
2020-Feb-17 15:56 234 0 gusting 2 2.8
2020-Feb-17 15:51 234 0 gusting 2 2.8
2020-Feb-17 15:46 234 0 gusting 2 2.8
2020-Feb-17 15:41 239 0 gusting 2 2.8
2020-Feb-17 15:36 239 0 gusting 2 2.8
2020-Feb-17 15:31 230 0 gusting 2 2.8
2020-Feb-17 15:26 235 0 gusting 2 2.8
2020-Feb-17 15:21 219 0 gusting 2 2.8
2020-Feb-17 15:16 219 0 gusting 2 2.2
2020-Feb-17 15:11 219 0 gusting 2 2.2
2020-Feb-17 15:06 221 2.2
2020-Feb-17 15:01 220 2.2
2020-Feb-17 14:56 220 0 gusting 1 2.2
2020-Feb-17 14:51 220 0 gusting 1 2.2
2020-Feb-17 14:46 220 0 gusting 1 2.8
2020-Feb-17 14:41 221 0 gusting 1 2.8
2020-Feb-17 14:36 221 0 gusting 1 2.8
2020-Feb-17 14:31 221 0 gusting 2 2.8
2020-Feb-17 14:26 221 0 gusting 2 2.8
2020-Feb-17 14:21 221 0 gusting 2 2.8
2020-Feb-17 14:16 221 0 gusting 2 2.8
2020-Feb-17 14:11 219 0 gusting 2 2.8
2020-Feb-17 14:06 219 0 gusting 2 2.8
2020-Feb-17 14:01 219 0 gusting 2 2.8
2020-Feb-17 13:56 219 2.2
2020-Feb-17 13:51 219 2.2
2020-Feb-17 13:46 219 2.2
2020-Feb-17 13:41 219 2.2
2020-Feb-17 13:36 219 0 gusting 1 2.2
2020-Feb-17 13:31 219 0 gusting 1 2.2
2020-Feb-17 13:26 219 0 gusting 2 1.7
2020-Feb-17 13:21 219 0 gusting 2 1.7
2020-Feb-17 13:16 219 0 gusting 1 1.7
2020-Feb-17 13:11 219 0 gusting 1 1.7
2020-Feb-17 13:06 219 1.7
2020-Feb-17 13:00 219 0 gusting 1 1.7
2020-Feb-17 12:55 219 0 gusting 1 1.7
2020-Feb-17 12:50 219 0 gusting 1 1.7
2020-Feb-17 12:45 219 0 gusting 1 2.2
2020-Feb-17 12:40 219 0 gusting 1 2.2
2020-Feb-17 12:35 219 0 gusting 2 2.2
2020-Feb-17 12:30 219 0 gusting 2 2.2
2020-Feb-17 12:25 219 0 gusting 1 2.2
2020-Feb-17 12:20 219 2.2
2020-Feb-17 12:15 219 0 gusting 2 2.2
2020-Feb-17 12:10 219 0 gusting 2 2.2
2020-Feb-17 12:00 219 1 gusting 2 2.2
2020-Feb-17 11:55 219 1 gusting 3 1.7
2020-Feb-17 11:50 219 0 gusting 3 1.7
2020-Feb-17 11:45 265 0 gusting 2 1.7
2020-Feb-17 11:40 265 0 gusting 1 1.7
2020-Feb-17 11:35 265 0 gusting 1 2.2
2020-Feb-17 11:30 265 0 gusting 1 2.2
2020-Feb-17 11:25 265 0 gusting 1 2.2
2020-Feb-17 11:20 265 2.2
2020-Feb-17 11:15 265 0 gusting 1 2.2
2020-Feb-17 11:10 265 0 gusting 1 2.2
2020-Feb-17 11:05 265 0 gusting 1 2.2
2020-Feb-17 11:00 265 0 gusting 1 2.8
2020-Feb-17 10:55 265 2.8
2020-Feb-17 10:50 265 2.8
2020-Feb-17 10:45 265 0 gusting 1 2.8
2020-Feb-17 10:40 265 1 gusting 1 3.3
2020-Feb-17 10:35 265 1 gusting 2 3.3
2020-Feb-17 10:30 265 0 gusting 2 3.3
2020-Feb-17 10:25 265 0 gusting 1 3.3
2020-Feb-17 10:20 265 0 gusting 1 3.9
2020-Feb-17 10:15 265 0 gusting 2 3.9
2020-Feb-17 10:10 265 0 gusting 3 3.9
2020-Feb-17 10:05 230 1 gusting 3 3.9
2020-Feb-17 09:55 212 1 gusting 4 3.9
2020-Feb-17 09:50 215 1 gusting 3 3.9
2020-Feb-17 09:45 221 1 gusting 2 3.9
2020-Feb-17 09:40 254 0 gusting 3 4.4
2020-Feb-17 09:35 279 1 gusting 3 4.4
2020-Feb-17 09:30 217 1 gusting 2 4.4
2020-Feb-17 09:25 213 1 gusting 3 4.4
2020-Feb-17 09:20 211 1 gusting 5 4.4
2020-Feb-17 09:15 212 2 gusting 6 4.4
2020-Feb-17 09:10 221 2 gusting 6 4.4
2020-Feb-17 09:05 220 1 gusting 5 4.4
2020-Feb-17 09:00 244 1 gusting 5 5.0
2020-Feb-17 08:55 221 1 gusting 6 5.0
2020-Feb-17 08:50 257 2 gusting 6 5.0
2020-Feb-17 08:45 236 1 gusting 6 5.0
2020-Feb-17 08:40 250 1 gusting 6 5.0
2020-Feb-17 08:35 226 1 gusting 3 5.0
2020-Feb-17 08:30 261 1 gusting 6 5.0
2020-Feb-17 08:25 265 1 gusting 6 5.0
2020-Feb-17 08:20 224 1 gusting 5 5.0
2020-Feb-17 08:15 238 1 gusting 4 5.0
2020-Feb-17 08:10 236 1 gusting 4 5.0
2020-Feb-17 08:05 207 0 gusting 2 5.0
2020-Feb-17 08:00 217 0 gusting 2 5.0
2020-Feb-17 07:55 217 1 gusting 4 5.0
2020-Feb-17 07:50 215 1 gusting 4 5.0
2020-Feb-17 07:45 228 1 gusting 6 5.0
2020-Feb-17 07:40 259 1 gusting 6 5.0
2020-Feb-17 07:35 228 1 gusting 4 5.0
2020-Feb-17 07:30 202 2 gusting 6 5.0
2020-Feb-17 07:25 263 2 gusting 6 5.0
2020-Feb-17 07:20 259 1 gusting 6 5.6
2020-Feb-17 07:15 255 2 gusting 5 5.6
2020-Feb-17 07:10 282 2 gusting 7 5.6
2020-Feb-17 07:05 246 2 gusting 7 5.6
2020-Feb-17 07:00 227 1 gusting 6 5.6
2020-Feb-17 06:55 300 1 gusting 6 5.6
2020-Feb-17 06:50 261 2 gusting 6 5.6
2020-Feb-17 06:45 269 1 gusting 6 5.6
2020-Feb-17 06:40 254 1 gusting 6 5.6
2020-Feb-17 06:35 250 1 gusting 2 5.0
2020-Feb-17 06:30 250 1 gusting 3 5.0
2020-Feb-17 06:25 250 1 gusting 6 5.0
2020-Feb-17 06:20 255 2 gusting 6 5.0
2020-Feb-17 06:15 221 1 gusting 6 5.0
2020-Feb-17 06:10 261 1 gusting 6 5.0
2020-Feb-17 06:05 241 1 gusting 4 5.0
2020-Feb-17 06:00 229 1 gusting 5 5.0
2020-Feb-17 05:55 200 1 gusting 5 5.0
2020-Feb-17 05:50 215 2 gusting 6 5.0
2020-Feb-17 05:45 215 2 gusting 6 5.0
2020-Feb-17 05:40 209 1 gusting 6 5.6
2020-Feb-17 05:35 241 2 gusting 6 5.6
2020-Feb-17 05:30 263 2 gusting 6 5.6
2020-Feb-17 05:25 233 3 gusting 7 5.6
2020-Feb-17 05:20 247 3 gusting 8 5.6
2020-Feb-17 05:15 274 3 gusting 8 5.6
2020-Feb-17 05:10 252 2 gusting 7 5.6
2020-Feb-17 05:05 284 3 gusting 9 5.6
2020-Feb-17 05:00 262 3 gusting 9 5.6
2020-Feb-17 04:55 243 3 gusting 9 5.6
2020-Feb-17 04:50 166 3 gusting 9 5.6
2020-Feb-17 04:45 246 3 gusting 8 5.6
2020-Feb-17 04:40 245 3 gusting 8 5.6
2020-Feb-17 04:35 234 3 gusting 7 5.6
2020-Feb-17 04:30 250 2 gusting 7 5.6
2020-Feb-17 04:25 234 3 gusting 10 5.6
2020-Feb-17 04:20 256 3 gusting 10 5.6
2020-Feb-17 04:15 246 2 gusting 9 5.6
2020-Feb-17 04:10 199 2 gusting 7 5.6
2020-Feb-17 04:05 205 2 gusting 7 5.0
2020-Feb-17 04:00 265 2 gusting 6 5.0
2020-Feb-17 03:55 240 2 gusting 6 5.0
2020-Feb-17 03:50 250 1 gusting 6 5.0
2020-Feb-17 03:45 059 0 gusting 1 5.0
2020-Feb-17 03:39 059 0 gusting 1 5.0
2020-Feb-17 03:34 059 0 gusting 1 5.6
2020-Feb-17 03:29 059 0 gusting 2 5.6
2020-Feb-17 03:24 059 6.1
2020-Feb-17 03:19 059 6.1
2020-Feb-17 03:14 059 0 gusting 3 6.1
2020-Feb-17 03:09 059 0 gusting 3 6.1
2020-Feb-17 03:04 218 6.1